DW9280 Weather Reports


Display with metric or nautical units.
time (UTC)temp
F
wind
direction
speed
MPH
gust
MPH
rain 1hr
in
rain 24hr
in
rain mn
in
humidity
%
barometer
mb
20260506073404 54 61 6.0 17.0 0.00 0.00 0.00 71 1008.8
20260506073355 54 63 6.0 17.0 0.00 0.00 0.00 71 1008.8
20260506072904 54 58 6.0 17.0 0.00 0.00 0.00 71 1008.8
20260506072854 54 48 6.0 17.0 0.00 0.00 0.00 71 1008.8
20260506072650 54 39 6.0 16.0 0.00 0.00 0.00 71 1008.7
20260506072605 54 69 6.0 16.0 0.00 0.00 0.00 71 1008.7
20260506072149 54 51 4.0 12.0 0.00 0.00 0.00 72 1008.7
20260506072104 54 51 4.0 12.0 0.00 0.00 0.00 72 1008.7
20260506071403 54 21 2.0 8.0 0.00 0.00 0.00 74 1008.7
20260506071351 54 42 2.0 8.0 0.00 0.00 0.00 74 1008.7
20260506070904 54 46 3.0 10.0 0.00 0.00 0.00 74 1008.7
20260506070846 54 44 3.0 10.0 0.00 0.00 0.00 75 1008.7
20260506070640 53 51 4.0 10.0 0.00 0.00 0.00 75 1008.6
20260506070557 53 51 3.0 10.0 0.00 0.00 0.00 75 1008.6
20260506062403 52 29 4.0 13.0 0.00 0.00 0.00 84 1008.5
20260506062332 52 34 4.0 13.0 0.00 0.00 0.00 84 1008.5
20260506061904 52 10 4.0 12.0 0.00 0.00 0.00 85 1008.5
20260506061834 52 355 4.0 12.0 0.00 0.00 0.00 85 1008.4
20260506061405 52 20 4.0 12.0 0.00 0.00 0.00 84 1008.4
20260506061332 52 350 4.0 12.0 0.00 0.00 0.00 84 1008.4
20260506060904 52 13 4.0 11.0 0.00 0.00 0.00 84 1008.3
20260506060831 52 28 4.0 11.0 0.00 0.00 0.00 84 1008.4
20260506060632 52 10 4.0 11.0 0.00 0.00 0.00 84 1008.3
20260506060551 52 17 4.0 11.0 0.00 0.00 0.00 84 1008.3
20260506051403 51 24 4.0 11.0 0.00 0.00 0.00 86 1008.3
20260506051331 51 17 4.0 11.0 0.00 0.00 0.00 86 1008.3
20260506050903 51 48 4.0 11.0 0.00 0.00 0.00 86 1008.3
20260506050829 51 341 4.0 11.0 0.00 0.00 0.00 86 1008.3
20260506050402 51 349 3.0 8.0 0.00 0.00 0.00 86 1008.3
20260506050332 51 15 3.0 8.0 0.00 0.00 0.00 86 1008.3
20260506044902 51 338 4.0 10.0 0.00 0.00 0.00 86 1008.4
20260506044826 51 349 4.0 10.0 0.00 0.00 0.00 86 1008.4
20260506044402 51 0 4.0 10.0 0.00 0.00 0.00 86 1008.3
20260506044322 51 355 4.0 10.0 0.00 0.00 0.00 86 1008.3
20260506043855 51 26 3.0 9.0 0.00 0.00 0.00 86 1008.4
20260506043823 51 347 3.0 9.0 0.00 0.00 0.00 86 1008.4
20260506043605 51 355 3.0 11.0 0.00 0.00 0.00 86 1008.4
20260506043527 51 23 3.0 11.0 0.00 0.00 0.00 86 1008.4
20260506043107 51 355 4.0 13.0 0.00 0.00 0.00 86 1008.4
20260506043028 50 355 4.0 13.0 0.00 0.00 0.00 86 1008.5
20260506042348 50 355 4.0 13.0 0.00 0.00 0.00 86 1008.5
20260506042306 50 10 4.0 13.0 0.00 0.00 0.00 86 1008.5
20260506041846 50 11 3.0 9.0 0.00 0.00 0.00 86 1008.4
20260506041806 50 32 3.0 9.0 0.00 0.00 0.00 86 1008.4
20260506041604 50 5 2.0 9.0 0.00 0.00 0.00 85 1008.5
20260506041524 50 355 2.0 9.0 0.00 0.00 0.00 85 1008.5
20260506040847 50 5 3.0 9.0 0.00 0.00 0.00 85 1008.4
20260506040805 50 348 3.0 9.0 0.00 0.00 0.00 85 1008.4
20260506040348 50 5 3.0 9.0 0.00 0.00 0.00 85 1008.5
20260506040307 50 24 3.0 9.0 0.00 0.00 0.00 85 1008.5
20260506035847 50 39 3.0 9.0 0.00 0.00 0.00 85 1008.5
20260506035804 50 19 3.0 10.0 0.00 0.00 0.00 85 1008.5
20260506035615 50 19 4.0 10.0 0.00 0.00 0.00 85 1008.5
20260506035522 50 38 4.0 10.0 0.00 0.00 0.00 85 1008.5
20260506034844 50 350 3.0 10.0 0.00 0.00 0.00 85 1008.5
20260506034804 50 34 3.0 10.0 0.00 0.00 0.00 85 1008.5
20260506034342 50 23 3.0 10.0 0.00 0.00 0.00 85 1008.5
20260506034303 50 355 3.0 10.0 0.00 0.00 0.00 85 1008.5
20260506033840 50 42 4.0 10.0 0.00 0.00 0.00 85 1008.6
20260506033802 51 48 4.0 10.0 0.00 0.00 0.00 85 1008.6
20260506033340 51 28 4.0 10.0 0.00 0.00 0.00 85 1008.6
20260506033305 51 19 4.0 10.0 0.00 0.00 0.00 85 1008.6
20260506032838 51 44 4.0 10.0 0.00 0.00 0.00 85 1008.6
20260506032801 51 5 4.0 10.0 0.00 0.00 0.00 85 1008.6
20260506032336 51 13 4.0 9.0 0.00 0.00 0.00 85 1008.7
20260506032306 51 18 4.0 9.0 0.00 0.00 0.00 85 1008.7
20260506031832 51 40 4.0 9.0 0.00 0.00 0.00 85 1008.6
20260506031805 51 336 4.0 9.0 0.00 0.00 0.00 85 1008.6
20260506031603 51 24 3.0 9.0 0.00 0.00 0.00 85 1008.7
20260506031523 51 14 3.0 9.0 0.00 0.00 0.00 85 1008.7
20260506030832 51 26 3.0 9.0 0.00 0.00 0.00 84 1008.7
20260506030805 51 32 3.0 9.0 0.00 0.00 0.00 84 1008.7
20260506030331 51 16 4.0 12.0 0.00 0.00 0.00 84 1008.8
20260506030303 51 22 4.0 12.0 0.00 0.00 0.00 84 1008.8
20260506025830 51 5 4.0 12.0 0.00 0.00 0.00 84 1008.9
20260506025803 51 336 4.0 12.0 0.00 0.00 0.00 84 1008.9
20260506025328 51 25 4.0 9.0 0.00 0.00 0.00 84 1008.9
20260506025305 51 16 4.0 9.0 0.00 0.00 0.00 84 1008.9
20260506024829 51 23 4.0 9.0 0.00 0.00 0.00 84 1008.9
20260506024803 51 31 4.0 9.0 0.00 0.00 0.00 84 1008.9
20260506024320 51 17 4.0 12.0 0.00 0.00 0.00 83 1009.0
20260506024304 51 0 4.0 12.0 0.00 0.00 0.00 83 1009.0
20260506023819 51 27 4.0 12.0 0.00 0.00 0.00 83 1009.0
20260506023804 51 18 4.0 12.0 0.00 0.00 0.00 83 1009.0
20260506023318 51 13 3.0 9.0 0.00 0.00 0.00 82 1009.0
20260506023303 51 11 3.0 9.0 0.00 0.00 0.00 82 1009.0
20260506022817 51 19 3.0 10.0 0.00 0.00 0.00 82 1009.0
20260506022802 51 17 3.0 10.0 0.00 0.00 0.00 82 1009.0
20260506022318 51 5 4.0 11.0 0.00 0.00 0.00 82 1009.0
20260506022305 51 34 4.0 11.0 0.00 0.00 0.00 82 1009.0
20260506022103 51 5 3.0 11.0 0.00 0.00 0.00 82 1009.0
20260506022014 51 10 3.0 11.0 0.00 0.00 0.00 82 1009.0
20260506021301 51 19 4.0 9.0 0.00 0.00 0.00 82 1009.0
20260506020810 51 27 4.0 11.0 0.00 0.00 0.00 82 1009.0
20260506020804 51 23 4.0 11.0 0.00 0.00 0.00 82 1009.0
20260506020308 51 39 3.0 11.0 0.00 0.00 0.00 82 1009.0
20260506020303 51 22 3.0 11.0 0.00 0.00 0.00 82 1009.0
20260506015807 51 39 3.0 10.0 0.00 0.00 0.00 82 1009.0
20260506015803 51 37 3.0 10.0 0.00 0.00 0.00 82 1009.0
20260506015305 51 49 4.0 9.0 0.00 0.00 0.00 82 1009.1
20260506014809 51 52 4.0 9.0 0.00 0.00 0.00 82 1009.1
20260506014803 51 41 4.0 9.0 0.00 0.00 0.00 82 1009.1
20260506014307 51 59 4.0 9.0 0.00 0.00 0.00 82 1009.1
20260506014303 51 63 4.0 9.0 0.00 0.00 0.00 82 1009.1
20260506013804 51 31 4.0 12.0 0.00 0.00 0.00 81 1009.1
20260506013302 51 9 5.0 12.0 0.00 0.00 0.00 81 1009.1
20260506012804 51 342 5.0 12.0 0.00 0.00 0.00 81 1009.1
20260506012307 51 39 4.0 11.0 0.00 0.00 0.00 81 1009.2
20260506011803 51 15 5.0 12.0 0.00 0.00 0.00 80 1009.2
20260506011305 51 22 6.0 12.0 0.00 0.00 0.00 80 1009.3
20260506011106 51 338 5.0 12.0 0.00 0.00 0.00 80 1009.3
20260506011013 51 338 5.0 12.0 0.00 0.00 0.00 80 1009.3
20260506010604 51 339 5.0 12.0 0.00 0.00 0.00 80 1009.3
20260506010515 51 339 5.0 12.0 0.00 0.00 0.00 80 1009.3
20260506005804 51 35 6.0 13.0 0.00 0.00 0.00 80 1009.4
20260506005305 51 342 6.0 13.0 0.00 0.00 0.00 80 1009.5
20260506005106 51 22 6.0 14.0 0.00 0.00 0.00 80 1009.4
20260506005012 51 22 6.0 14.0 0.00 0.00 0.00 80 1009.4
20260506004303 51 44 5.0 14.0 0.00 0.00 0.00 80 1009.5
20260506003804 51 44 4.0 11.0 0.00 0.00 0.00 81 1009.6
20260506003303 51 54 4.0 11.0 0.00 0.00 0.00 81 1009.6
20260506002803 51 355 3.0 11.0 0.00 0.00 0.00 81 1009.7
20260506002305 51 13 5.0 13.0 0.00 0.00 0.00 81 1009.7
20260506001801 51 51 5.0 13.0 0.00 0.00 0.00 81 1009.6
20260506001302 51 11 3.0 10.0 0.00 0.00 0.00 82 1009.7
20260506000803 51 38 3.0 10.0 0.00 0.00 0.00 82 1009.7
20260506000303 51 11 3.0 11.0 0.00 0.00 0.00 82 1009.7
20260506000058 51 32 4.0 11.0 0.00 0.00 0.00 82 1009.7
20260506000012 51 32 4.0 11.0 0.00 0.00 0.00 82 1009.7
20260505235304 51 19 4.0 9.0 0.00 0.00 0.00 82 1009.8
20260505234804 51 16 4.0 9.0 0.00 0.00 0.00 81 1009.8
20260505234303 51 30 4.0 11.0 0.00 0.00 0.00 81 1009.9
20260505233803 51 22 4.0 11.0 0.00 0.00 0.00 82 1010.0
20260505233303 51 0 3.0 9.0 0.00 0.00 0.00 82 1010.1
20260505232803 51 56 4.0 9.0 0.00 0.00 0.00 82 1010.1
20260505232305 51 9 4.0 9.0 0.00 0.00 0.00 82 1010.1
20260505231802 51 17 4.0 11.0 0.00 0.00 0.00 82 1010.1
20260505231303 51 28 4.0 11.0 0.00 0.00 0.00 82 1010.2
20260505230803 51 19 4.0 8.0 0.00 0.00 0.00 83 1010.2
20260505230304 50 28 4.0 12.0 0.00 0.00 0.00 83 1010.2
20260505225803 50 42 4.0 12.0 0.00 0.00 0.00 83 1010.2
20260505225305 50 36 4.0 10.0 0.00 0.00 0.00 83 1010.2
20260505224801 50 11 4.0 11.0 0.00 0.00 0.00 83 1010.3
20260505224304 50 34 4.0 11.0 0.00 0.00 0.00 83 1010.3
20260505223804 50 340 3.0 9.0 0.00 0.00 0.00 83 1010.3
20260505223304 50 40 4.0 9.0 0.00 0.00 0.00 83 1010.4
20260505222803 50 11 3.0 9.0 0.00 0.00 0.00 83 1010.4
20260505222305 50 27 4.0 13.0 0.00 0.00 0.00 83 1010.5
20260505221805 50 355 5.0 13.0 0.00 0.00 0.00 83 1010.5
20260505221302 50 30 4.0 14.0 0.00 0.00 0.00 83 1010.5
20260505220802 50 35 5.0 14.0 0.00 0.00 0.00 83 1010.6
20260505220302 50 355 5.0 11.0 0.00 0.00 0.00 83 1010.5
20260505215802 50 5 4.0 13.0 0.00 0.00 0.00 84 1010.6
20260505215304 50 23 3.0 13.0 0.00 0.00 0.00 84 1010.6
20260505214804 50 19 3.0 9.0 0.00 0.00 0.00 84 1010.6
20260505214304 50 34 2.0 9.0 0.00 0.00 0.00 83 1010.7
20260505213803 50 26 2.0 7.0 0.00 0.00 0.00 83 1010.7
20260505213302 50 35 2.0 7.0 0.00 0.00 0.00 82 1010.7
20260505212803 50 38 3.0 8.0 0.00 0.00 0.00 82 1010.7
20260505212301 50 28 4.0 9.0 0.00 0.00 0.00 81 1010.7
20260505211803 50 26 4.0 10.0 0.00 0.00 0.00 80 1010.7
20260505211302 51 47 4.0 11.0 0.00 0.00 0.00 80 1010.6
20260505210805 51 355 4.0 11.0 0.00 0.00 0.00 79 1010.6
20260505210302 51 32 5.0 10.0 0.00 0.00 0.00 79 1010.6
20260505205803 51 25 5.0 10.0 0.00 0.00 0.00 78 1010.7
20260505205304 51 24 5.0 12.0 0.00 0.00 0.00 77 1010.8
20260505204802 51 42 5.0 12.0 0.00 0.00 0.00 77 1010.9
20260505204303 51 41 4.0 11.0 0.00 0.00 0.00 76 1010.9
20260505203805 51 45 4.0 11.0 0.00 0.00 0.00 75 1010.9
20260505203302 51 42 5.0 11.0 0.00 0.00 0.00 75 1010.9
20260505202802 51 346 5.0 11.0 0.00 0.00 0.00 74 1010.9
20260505202306 51 18 5.0 14.0 0.00 0.00 0.00 74 1010.9
20260505201804 51 23 4.0 14.0 0.00 0.00 0.00 75 1010.9
20260505201604 51 11 5.0 11.0 0.00 0.00 0.00 74 1010.8
20260505201513 51 11 5.0 11.0 0.00 0.00 0.00 74 1010.8
20260505200802 51 30 5.0 13.0 0.00 0.00 0.00 74 1010.8
20260505200303 51 18 4.0 13.0 0.00 0.00 0.00 74 1010.8
20260505195803 51 29 4.0 13.0 0.00 0.00 0.00 74 1010.8
20260505195558 51 0 4.0 13.0 0.00 0.00 0.00 75 1010.8
20260505195510 51 0 4.0 13.0 0.00 0.00 0.00 75 1010.8
20260505194801 52 57 5.0 13.0 0.00 0.00 0.00 75 1010.6
20260505194304 52 24 4.0 12.0 0.00 0.00 0.00 75 1010.6
20260505193802 52 40 5.0 12.0 0.00 0.00 0.00 75 1010.6
20260505193301 52 39 5.0 11.0 0.00 0.00 0.00 75 1010.5
20260505192804 52 28 5.0 13.0 0.00 0.00 0.00 75 1010.5
20260505192305 52 26 5.0 14.0 0.00 0.00 0.00 75 1010.4
20260505191802 52 337 4.0 14.0 0.00 0.00 0.00 75 1010.3
20260505191303 52 28 4.0 13.0 0.00 0.00 0.00 75 1010.3
20260505190806 52 332 5.0 13.0 0.00 0.00 0.00 75 1010.2
20260505190559 53 26 5.0 13.0 0.00 0.00 0.00 75 1010.2
20260505190511 53 26 5.0 13.0 0.00 0.00 0.00 75 1010.2
20260505185802 53 15 6.0 16.0 0.00 0.00 0.00 75 1010.2
20260505185305 53 32 5.0 16.0 0.00 0.00 0.00 76 1010.1
20260505184802 53 319 4.0 12.0 0.00 0.00 0.00 76 1010.2
20260505184302 53 344 5.0 12.0 0.00 0.00 0.00 76 1010.2
20260505183802 53 17 6.0 13.0 0.00 0.00 0.00 76 1010.1
20260505183302 53 9 6.0 14.0 0.00 0.00 0.00 75 1010.2
20260505182802 53 349 6.0 18.0 0.00 0.00 0.00 75 1010.1
20260505182306 53 22 7.0 18.0 0.00 0.00 0.00 75 1010.1
20260505182119 53 33 5.0 12.0 0.00 0.00 0.00 75 1010.1
20260505182012 53 33 5.0 12.0 0.00 0.00 0.00 75 1010.1
20260505181304 53 39 5.0 11.0 0.00 0.00 0.00 75 1010.1
20260505180803 54 350 6.0 12.0 0.00 0.00 0.00 75 1010.1
20260505180302 54 13 6.0 14.0 0.00 0.00 0.00 74 1010.1
20260505175802 54 19 5.0 14.0 0.00 0.00 0.00 75 1010.1
20260505175305 54 25 5.0 13.0 0.00 0.00 0.00 75 1010.2
20260505174804 54 5 6.0 13.0 0.00 0.00 0.00 74 1010.2
20260505174302 54 38 6.0 13.0 0.00 0.00 0.00 74 1010.2
20260505173805 54 339 6.0 13.0 0.00 0.00 0.00 74 1010.2
20260505173305 55 324 5.0 13.0 0.00 0.00 0.00 73 1010.2
20260505172803 55 350 5.0 12.0 0.00 0.00 0.00 73 1010.2
20260505172305 55 40 6.0 16.0 0.00 0.00 0.00 72 1010.1
20260505171802 55 46 6.0 16.0 0.00 0.00 0.00 72 1010.2
20260505171304 55 5 6.0 15.0 0.00 0.00 0.00 73 1010.1
20260505170802 56 12 6.0 15.0 0.00 0.00 0.00 73 1010.2
20260505170304 56 348 6.0 13.0 0.00 0.00 0.00 72 1010.2
20260505165803 56 342 7.0 14.0 0.00 0.00 0.00 72 1010.2
20260505165305 56 355 7.0 14.0 0.00 0.00 0.00 73 1010.2
20260505164803 56 12 7.0 15.0 0.00 0.00 0.00 73 1010.2
20260505164559 56 9 7.0 15.0 0.00 0.00 0.00 73 1010.2
20260505164511 56 9 7.0 15.0 0.00 0.00 0.00 73 1010.2
20260505164105 56 355 7.0 14.0 0.00 0.00 0.00 73 1010.2
20260505164012 56 355 7.0 14.0 0.00 0.00 0.00 73 1010.2
20260505163305 56 343 6.0 13.0 0.00 0.00 0.00 73 1010.3
20260505162805 56 307 7.0 16.0 0.00 0.00 0.00 73 1010.2
20260505162306 56 355 7.0 16.0 0.00 0.00 0.00 73 1010.3
20260505161815 56 11 6.0 15.0 0.00 0.00 0.00 73 1010.3
20260505161305 56 9 6.0 15.0 0.00 0.00 0.00 72 1010.2
20260505160802 56 350 6.0 13.0 0.00 0.00 0.00 73 1010.2
20260505160305 56 24 6.0 14.0 0.00 0.00 0.00 72 1010.2
20260505153304 57 53 7.0 16.0 0.00 0.00 0.00 71 1010.3
20260505152806 57 19 7.0 19.0 0.00 0.00 0.00 71 1010.3
20260505152305 58 319 7.0 19.0 0.00 0.00 0.00 70 1010.3
20260505151804 58 21 8.0 19.0 0.00 0.00 0.00 70 1010.4
20260505151302 57 331 9.0 19.0 0.00 0.00 0.00 69 1010.4
20260505150802 57 341 8.0 17.0 0.00 0.00 0.00 70 1010.4
20260505150605 57 20 9.0 17.0 0.00 0.00 0.00 70 1010.3
20260505150513 57 20 9.0 17.0 0.00 0.00 0.00 70 1010.3
20260505140305 57 355 7.0 18.0 0.00 0.00 0.00 69 1010.6
20260505130305 57 9 7.0 17.0 0.00 0.00 0.00 71 1011.0
20260505124804 58 5 6.0 14.0 0.00 0.00 0.00 69 1011.0
20260505124303 57 312 7.0 16.0 0.00 0.00 0.00 71 1011.0
20260505123803 57 349 7.0 16.0 0.00 0.00 0.00 70 1011.1
20260505123304 58 342 6.0 13.0 0.00 0.00 0.00 70 1011.1
20260505122803 58 318 6.0 13.0 0.00 0.00 0.00 71 1011.0
20260505122305 58 334 7.0 14.0 0.00 0.00 0.00 70 1011.1
20260505121803 58 291 6.0 14.0 0.00 0.00 0.00 70 1011.2
20260505121303 58 338 6.0 15.0 0.00 0.00 0.00 71 1011.2
20260505120801 58 333 5.0 15.0 0.00 0.00 0.00 70 1011.3
20260505120258 58 336 4.0 12.0 0.00 0.00 0.00 71 1011.3
20260505115757 58 28 5.0 12.0 0.00 0.00 0.00 72 1011.3
20260505115258 58 311 5.0 13.0 0.00 0.00 0.00 72 1011.3
20260505114756 57 309 6.0 14.0 0.00 0.00 0.00 71 1011.4
20260505114251 57 299 5.0 14.0 0.00 0.00 0.00 71 1011.4
20260505113750 58 22 4.0 15.0 0.00 0.00 0.00 70 1011.4
20260505113251 58 343 5.0 15.0 0.00 0.00 0.00 72 1011.4
20260505112750 57 19 5.0 11.0 0.00 0.00 0.00 72 1011.4
20260505112545 56 323 4.0 11.0 0.00 0.00 0.00 71 1011.4
20260505112454 56 323 4.0 11.0 0.00 0.00 0.00 71 1011.4
20260505111742 57 31 4.0 15.0 0.00 0.00 0.00 71 1011.5
20260505111243 57 36 5.0 15.0 0.00 0.00 0.00 72 1011.5
20260505110741 56 51 5.0 11.0 0.00 0.00 0.00 72 1011.5
20260505110242 56 48 4.0 12.0 0.00 0.00 0.00 74 1011.5
20260505102041 53 11 2.0 7.0 0.00 0.00 0.00 82 1012.0
20260505101941 53 11 2.0 7.0 0.00 0.00 0.00 82 1012.0
20260505101230 53 16 2.0 6.0 0.00 0.00 0.00 82 1012.1
20260505100731 53 9 3.0 9.0 0.00 0.00 0.00 82 1012.0
20260505100232 53 74 4.0 10.0 0.00 0.00 0.00 83 1012.0
20260505095730 52 29 4.0 10.0 0.00 0.00 0.00 83 1012.0
20260505095328 52 24 4.0 9.0 0.00 0.00 0.00 84 1012.0
20260505095305 52 64 3.0 8.0 0.00 0.00 0.00 84 1012.0
20260505094936 52 24 4.0 9.0 0.00 0.00 0.00 84 1012.0
20260505094226 52 36 4.0 9.0 0.00 0.00 0.00 85 1012.0
20260505093723 52 51 4.0 8.0 0.00 0.00 0.00 85 1012.0
20260505093225 52 351 3.0 8.0 0.00 0.00 0.00 85 1012.1
20260505092723 52 48 3.0 9.0 0.00 0.00 0.00 85 1012.1
20260505092516 52 355 4.0 9.0 0.00 0.00 0.00 85 1012.1
20260505092429 52 355 4.0 9.0 0.00 0.00 0.00 85 1012.1
20260505091721 52 62 3.0 9.0 0.00 0.00 0.00 85 1012.1
20260505091223 52 54 3.0 10.0 0.00 0.00 0.00 85 1012.1
20260505090809 52 38 4.0 9.0 0.00 0.00 0.00 86 1012.0
20260505090745 52 40 4.0 10.0 0.00 0.00 0.00 86 1012.1
20260505090420 52 38 4.0 9.0 0.00 0.00 0.00 86 1012.0
20260505085710 51 22 4.0 10.0 0.00 0.00 0.00 86 1012.0
20260505085209 51 43 5.0 10.0 0.00 0.00 0.00 87 1011.9
20260505084706 51 24 5.0 11.0 0.00 0.00 0.00 87 1011.9
20260505084206 51 23 5.0 14.0 0.00 0.00 0.00 87 1011.9
20260505083705 51 5 4.0 14.0 0.00 0.00 0.00 87 1012.0
20260505083202 51 26 5.0 12.0 0.00 0.00 0.00 87 1012.0
20260505082957 51 45 4.0 11.0 0.00 0.00 0.00 87 1012.1
20260505082911 51 45 4.0 11.0 0.00 0.00 0.00 87 1012.1
20260505082203 51 82 3.0 10.0 0.00 0.00 0.00 88 1012.1
20260505081704 51 26 4.0 10.0 0.00 0.00 0.00 89 1012.1
20260505081203 50 37 5.0 10.0 0.00 0.00 0.00 89 1012.1
20260505080702 50 25 5.0 13.0 0.00 0.00 0.00 90 1012.2
20260505080201 50 42 4.0 13.0 0.00 0.00 0.00 91 1012.1